Location: Loubens
(44.6301°N, 0.0364°W)
Time: 06:34:58
(UTC+00:00)

Daily predictions for brighter satellites

Satellite Brightness Start Highest point End
(mag) Time Altitude Azimuth Time Altitude Azimuth Time Altitude Azimuth
NOSS 2-2 (E) 3.6 18:27:15 10° S 18:30:28 36° ESE 18:33:58 10° NE
Tsikada Rocket 4.2 18:24:57 10° N 18:31:09 82° W 18:37:18 10° S
Cosmos 1544 3.3 18:30:29 10° SSW 18:34:09 76° W 18:37:49 10° N
Okean-O 2.9 18:31:04 10° S 18:35:30 77° WSW 18:39:57 10° NNW
USA 116 3.7 18:32:38 10° NNE 18:36:02 50° ESE 18:39:48 10° S
Okean 2 3.4 18:32:16 10° N 18:36:28 73° E 18:40:36 10° SSE
CZ-2C R/B 3.0 18:34:50 10° SSW 18:37:05 16° S 18:39:16 10° SE
NOSS 2-2 (D) 3.7 18:35:57 10° S 18:39:10 34° ESE 18:42:35 10° NE
Iridium 4 Rocket 3.5 18:38:44 10° S 18:43:38 88° E 18:49:04 10° N
CENTAUR R/B 4.0 18:37:46 10° NNW 18:44:40 33° NNE 18:51:58 11° E
YAOGAN 1 2.6 18:40:32 10° SSE 18:44:51 85° WSW 18:49:13 10° NNW
Cosmos 1975 2.9 18:41:07 10° S 18:45:12 88° W 18:49:19 10° N
GP-B 3.9 18:42:39 10° N 18:47:02 58° W 18:51:23 10° SSW
H-2A R/B 2.0 18:44:11 10° SSE 18:49:01 59° ENE 18:54:01 10° N
SJ-11-01 4.3 18:44:58 10° SSE 18:49:38 64° ENE 18:54:17 10° N
CZ-4 R/B 2.1 18:46:04 10° S 18:50:15 61° W 18:54:26 10° NNW
ATLAS 3B R/B 4.5 18:46:30 10° NNW 18:50:51 17° NNE 18:55:17 10° ENE
Cosmos 1437 2.5 18:48:01 10° N 18:51:02 88° E 18:54:01 10° S
DMSP B5D1-3 4.4 18:46:28 10° NNE 18:51:35 73° ESE 18:56:39 10° S
ISS -3.4 18:49:58 10° SW 18:53:11 45° SE 18:56:09 12° ENE
USA 238 DEB 4.4 18:49:47 10° NNW 18:56:32 41° NE 19:02:30 14° ESE
USA 238 4.4 18:49:53 10° NNW 18:56:37 41° NE 19:02:35 14° ESE
Cosmos 1842 3.6 18:52:57 10° NNW 18:56:49 68° W 19:00:39 10° S
ARGOS 3.2 18:57:18 10° SSE 19:02:33 61° ENE 19:07:52 10° N
Cosmos 1782 Rocket 3.9 19:01:01 10° SSW 19:05:24 69° W 19:09:51 10° N
Cosmos 1025 Rocket 3.5 19:01:58 10° N 19:06:07 39° ENE 19:10:01 11° SE
CZ-2C R/B 3.3 19:01:45 10° NNE 19:06:48 35° E 19:11:52 10° SSE
Cosmos 1707 2.7 19:05:36 10° N 19:09:24 58° E 19:13:10 10° SSE
Cosmos 2151 Rocket 4.1 19:06:16 10° SSE 19:10:19 36° E 19:14:26 10° NNE
USA 186 2.1 19:13:02 22° SE 19:14:37 41° ENE 19:17:41 10° N
Ariane Rocket 3.2 19:12:56 11° SE 19:17:33 50° ENE 19:22:27 10° N
SJ-6B 3.3 19:16:15 23° ESE 19:17:55 35° ENE 19:21:23 10° N
CZ-2C R/B 3.7 19:13:26 10° S 19:18:34 60° W 19:24:02 10° NNW
Cosmos 1844 4.4 19:14:19 10° SSE 19:19:15 31° ESE 19:24:08 10° NE
FREGAT/IRIS 3.5 19:20:39 26° NE 19:20:39 26° NE 19:22:28 10° N
Cosmos 2263 Rocket 3.2 19:15:46 10° SW 19:21:07 48° WNW 19:26:33 10° NNE
Cosmos 1072 Rocket 4.4 19:15:22 10° S 19:21:34 78° E 19:27:55 10° N
NOSS 2-2 (C) 3.2 19:20:10 10° SW 19:23:40 75° NW 19:27:31 10° NE
Nadezhda 4 Rocket 4.1 19:17:44 10° N 19:23:43 52° ENE 19:29:17 12° SSE
HJ-1C 4.5 19:21:02 10° S 19:24:11 45° W 19:27:23 10° NNW
NOSS 3-2 (A) 4.2 19:17:05 10° NNW 19:24:27 61° NE 19:30:19 21° ESE
MOS 1 4.4 19:21:25 14° SE 19:26:14 55° ENE 19:31:48 10° N
Cosmos 1844 Rocket 2.9 19:22:37 10° S 19:27:51 44° ESE 19:33:08 10° NE
Cosmos 2034 Rocket 4.1 19:21:50 10° S 19:28:02 58° E 19:34:16 10° NNE
USA 102 3.2 19:24:06 18° SSE 19:29:09 72° ENE 19:29:58 45° N
Cosmos 1975 Rocket 4.2 19:25:43 10° NNW 19:29:50 43° W 19:33:55 10° SSW
Cosmos 2298 Rocket 4.0 19:25:04 10° S 19:30:18 61° ESE 19:35:34 10° NNE
SPOT 3 Rocket 4.3 19:32:57 27° ESE 19:34:36 34° ENE 19:39:13 10° N
Resurs 01 Rocket 2.7 19:42:54 27° ENE 19:42:54 27° ENE 19:46:38 10° N
USA 234 3.4 19:38:25 10° ENE 19:44:43 48° SE 19:50:59 10° SSW
Cosmos 1867 4.0 19:39:45 10° NW 19:45:09 60° WSW 19:49:02 19° SSE
Lacrosse 5 rocket 3.9 19:42:44 10° NW 19:45:43 18° N 19:48:46 10° NE
MetOp-A 4.1 19:42:59 22° SSE 19:46:30 72° ENE 19:51:51 10° N
Cosmos 372 Rocket 4.4 19:44:20 10° SSW 19:49:32 65° WNW 19:54:45 10° NNE
Cosmos 1833 Rocket 4.3 19:46:39 10° N 19:50:29 18° NE 19:51:25 18° ENE
OBJECT-B 1.7 19:52:34 37° NNE 19:52:34 37° NNE 19:54:50 10° N
Meteor 1-15 Rocket 4.1 19:46:56 10° S 19:52:28 65° E 19:58:07 10° NNE
IRS-1A Rocket 4.4 19:46:57 12° SSE 19:52:29 84° WSW 19:58:24 10° NNW
MOS 1 Rocket 4.5 19:49:37 10° N 19:53:49 41° WNW 19:57:51 10° SW
Cosmos 1626 4.0 19:54:34 10° NNE 19:56:03 19° NNE 19:56:03 19° NNE
NOSS 3-2 (C) 4.1 19:51:53 10° NNW 19:59:18 64° NE 20:03:03 35° ESE
ARIANE 5 R/B 4.2 20:01:02 21° NE 20:01:02 21° NE 20:03:23 10° NNE
Cosmos 2150 Rocket 4.1 19:54:37 10° SSW 19:59:59 83° WNW 20:05:28 10° NNE
DMSP B5D2-2 4.0 19:55:14 10° NNE 20:00:34 85° ESE 20:05:51 10° SSW
Cosmos 1634 Rocket 4.2 19:59:03 38° SE 20:00:42 46° E 20:06:34 10° NNE
Abrixas rocket 3.5 20:00:58 10° WNW 20:03:00 31° NNW 20:03:00 31° NNW
BREEZE-M TANK 2.8 19:54:52 10° WSW 20:03:44 80° SSE 20:04:37 54° E
Okean 2 Rocket 4.4 20:02:34 10° SSW 20:06:49 41° WNW 20:11:05 10° N
Cosmos 2285 Rocket 3.9 20:01:32 10° S 20:07:44 67° ESE 20:14:02 10° NNE
Cosmos 1125 Rocket 3.4 20:02:31 10° SSW 20:07:49 79° ESE 20:13:09 10° NNE
Okean 1 Rocket 2.9 20:08:19 69° ESE 20:08:23 69° E 20:12:52 10° NNE
CZ-2C R/B 3.6 20:13:57 10° SW 20:14:20 11° SW 20:14:20 11° SW
Cosmos 1627 Rocket 4.5 20:11:34 10° N 20:17:58 68° E 20:19:38 49° SE
Resurs 1-3 3.5 20:18:56 82° S 20:19:06 87° WSW 20:23:32 10° NNW
Cosmos 1805 4.1 20:24:13 45° N 20:24:13 45° N 20:27:01 10° N
Cosmos 1092 Rocket 3.9 20:17:06 10° N 20:23:17 89° W 20:25:37 41° S
Meteor 2-13 Rocket 4.4 20:17:27 10° N 20:23:39 85° W 20:26:05 40° S
Meteor 2-5 Rocket 3.6 20:18:47 10° N 20:24:27 81° E 20:25:27 62° SSE
Cosmos 2195 Rocket 4.3 20:19:15 10° N 20:25:33 85° E 20:27:20 50° SSE
ATLAS 2AS CENTAUR R/B 3.1 20:18:16 10° S 20:25:51 52° ESE 20:33:27 10° NE
Cosmos 1674 3.5 20:23:23 10° NNW 20:27:00 50° W 20:27:00 50° W
Cosmos 2026 Rocket 3.9 20:23:09 10° N 20:29:32 78° E 20:30:53 58° SSE
ISS -1.8 20:26:54 10° W 20:29:08 30° WNW 20:29:08 30° WNW
Cosmos 2082 Rocket 3.8 20:28:28 10° N 20:32:16 21° NE 20:32:16 21° NE
BREEZE-M DEB (TANK) 4.4 20:28:59 10° WSW 20:32:55 74° NNW 20:48:48 10° ENE
Meteor 1-22 Rocket 4.2 20:34:25 73° ESE 20:34:39 74° E 20:40:40 10° NNE
CENTAUR R/B 3.1 20:28:16 10° NW 20:36:27 89° NE 20:39:10 50° SE
CZ-2C R/B 4.3 20:35:39 10° N 20:38:59 49° N 20:38:59 49° N
Cosmos 1428 Rocket 4.4 20:34:55 10° N 20:41:14 89° E 20:42:07 68° S
ATLAS 3B R/B 3.3 20:36:59 10° NNW 20:43:28 43° NE 20:44:10 41° ENE
Cosmos 2279 Rocket 4.2 20:44:35 55° NE 20:44:35 55° NE 20:49:48 10° NNE
COSMOS 2406 3.7 20:38:18 10° NNW 20:43:10 48° NE 20:43:10 48° NE
Cosmos 2142 Rocket 4.4 20:47:06 75° ENE 20:47:06 75° ENE 20:53:11 10° N
CZ-2C R/B 4.2 20:42:02 10° N 20:47:03 36° WNW 20:52:07 10° SW
Meteor 1-24 Rocket 3.6 20:41:41 10° NNW 20:47:08 85° WNW 20:47:08 85° WNW
USA 238 DEB 4.2 20:40:42 10° NW 20:47:47 57° WSW 20:49:57 43° S
USA 238 4.2 20:40:49 10° NW 20:47:54 58° WSW 20:50:02 43° S
Cosmos 1269 Rocket 4.2 20:43:18 10° NNW 20:48:00 69° N 20:48:00 69° N
Spot 2 Rocket 4.4 20:51:06 40° NNE 20:51:06 40° NNE 20:54:30 10° N
Exosat Rocket 4.4 20:48:43 10° SW 20:54:08 49° WNW 20:58:59 10° NNE
Terra 4.0 21:02:36 16° NNE 21:02:36 16° NNE 21:03:51 10° N
MetOp-B 4.4 21:01:41 63° NNW 21:01:41 63° NNW 21:06:12 10° NNW
Lacrosse 4 Rocket 4.1 21:05:55 10° N 21:06:37 13° N 21:06:37 13° N
Cosmos 1844 Rocket 4.4 21:06:58 10° WSW 21:11:53 31° NW 21:16:50 10° N
Resurs 01 Rocket 3.5 21:20:28 27° WNW 21:20:28 27° WNW 21:23:16 10° NNW
Lacrosse 5 rocket 4.0 21:23:03 10° NNW 21:25:05 17° N 21:25:05 17° N
USA 234 3.6 21:24:44 32° NE 21:27:50 60° NNW 21:34:15 10° WSW
Cosmos 1833 Rocket 3.8 21:29:31 10° NNW 21:33:07 41° NNW 21:33:07 41° NNW
ATLAS 2AS CENTAUR R/B 3.8 22:09:22 10° WSW 22:17:01 48° NW 22:24:34 10° NNE
Cosmos 2082 Rocket 4.1 22:11:47 10° NNW 22:14:06 26° NNW 22:14:06 26° NNW
ATLAS 3B R/B 4.1 22:27:41 10° NW 22:31:25 32° WNW 22:31:25 32° WNW
